Regional Weather Roundup
Issued by NWS

Home | Current Version | Previous Version | Graphics & Text | Print | Product List | Glossary On
Versions: 1 2 3 4 5 6 7 8 9 10 11 12 13 14 15 16 17 18 19 20 21 22 23 24 25 26 27 28 29 30 31 32 33 34 35 36 37 38 39 40 41 42 43 44 45 46 47 48 49 50
000
ASUS43 KLOT 011710
RWRIL

ILLINOIS REGIONAL WEATHER ROUNDUP
NATIONAL WEATHER SERVICE CHICAGO/ROMEOVILLE IL
1200 PM CDT FRI AUG 01 2014

NOTE: "FAIR" INDICATES FEW OR NO CLOUDS BELOW 12,000 FEET WITH NO
SIGNIFICANT WEATHER AND/OR OBSTRUCTIONS TO VISIBILITY.

* THESE STATIONS ARE NOT UNDER NWS QUALITY CONTROL. THEY ALSO MAY NOT
  REPORT WEATHER SUCH AS PRECIPITATION OR FOG.

ILZ001-002-007-009-015-016-024-011800-
NORTHWEST ILLINOIS

CITY           SKY/WX    TMP DP  RH WIND       PRES   REMARKS
MOLINE         SUNNY     79  62  56 SW7       30.09S HX  80
STERLING*      SUNNY     81  63  54 W6        30.10F HX  82
SAVANNA*       SUNNY     80  56  42 W5        30.09S HX  80
$$

ILZ003-004-008-010-011-017-018-011800-
NORTH CENTRAL ILLINOIS

CITY           SKY/WX    TMP DP  RH WIND       PRES   REMARKS
ROCKFORD       MOSUNNY   79  60  52 S5        30.11S HX  80
FREEPORT*      MOSUNNY   78  65  65 SW5       30.12S HX  80
ROCHELLE*      MOSUNNY   78  58  49 SW5       30.11S
DE KALB*       MOSUNNY   76  63  64 NW5       30.11F
PERU*          PTSUNNY   74  61  64 CALM      30.11S
$$

ILZ005-006-012>014-019>023-011800-
NORTHEAST ILLINOIS

CITY           SKY/WX    TMP DP  RH WIND       PRES   REMARKS
CHICAGO-OHARE  MOSUNNY   81  54  39 VRB6      30.08F HX  81
CHICAGO-MIDWAY PTSUNNY   81  57  43 W10       30.09S HX  81
AURORA         MOSUNNY   78  60  53 W6        30.11S
LANSING*       PTSUNNY   79  59  51 SW9       30.09F HX  80
JOLIET*        MOSUNNY   78  60  53 NW7       30.11S HX  80
WAUKEGAN       SUNNY     79  58  48 SW6       30.08F HX  80
DUPAGE AIRPORT MOSUNNY   80  60  50 SW9       30.10S HX  81
KANKAKEE*      MOSUNNY   78  64  63 S3        30.11F HX  80
WHEELING       LGT RAIN  79  63  57 N8        30.10S HX  80
MORRIS*        PTSUNNY   77  66  69 W6        30.11R
ROMEOVILLE*    PTSUNNY   78  64  61 W8        30.10S
NORTHERLY ISL    N/A     74  60  61 E9          N/A
$$

LMZ740>746-011800-
SOUTHERN LAKE MICHIGAN

STATION/POSITION SKY/WX   TEMP    WIND        PRES    VSBY  WAVE
                          AIR SEA DIR/SP/G                  HT/PER
                          (F)     (DEG/KT/KT) (MB)    (MI)  (FT/S)
SOUTHERN BUOY              66 63  230/  4/  6 1019.2S         0
WAUKEGAN HARBOR            78     310/  3/  7   N/A
HARRISON CRIB              76      70/  4/  5   N/A
BURNHAM HARBOR             73     100/  7/ 11   N/A
CALUMET HARBOR             79     210/  5/  7 1017.5F
MICHIGAN CITY              73     270/  1/  2   N/A
MICHIGAN CITY 6N           71 71  350/  2/  4   N/A           0
ST. JOSEPH                 70 69  170/  4/  4   N/A           1
$$

ILZ025>027-034>036-040-047-049-050-058-095>099-011800-
WEST-CENTRAL ILLINOIS

CITY           SKY/WX    TMP DP  RH WIND       PRES   REMARKS
QUINCY         PTSUNNY   75  62  64 E7        30.10S
GALESBURG*     SUNNY     85  65  51 CALM      30.10F HX  87
MACOMB*        PTSUNNY   73  65  76 S3        30.13S
JACKSONVILLE*  PTSUNNY   80  67  64 CALM      30.10F HX  83
PITTSFIELD*    PTSUNNY   80  67  63 E3        30.11S HX  82
$$

ILZ028>032-037-038-041>044-048-051>054-059>061-011800-
CENTRAL ILLINOIS

CITY           SKY/WX    TMP DP  RH WIND       PRES   REMARKS
PONTIAC        MOSUNNY   79  66  65 SE3       30.10F HX  81
DECATUR        MOSUNNY   81  61  50 SW8       30.10F HX  82
PEORIA         SUNNY     80  62  54 SE5       30.10S HX  81
LACON*         MOSUNNY   77  60  54 CALM      30.09F
LINCOLN*       MOSUNNY   84  62  47 CALM      30.06F HX  84
SPRINGFIELD    MOSUNNY   82  66  58 VRB3      30.09F HX  84
TAYLORVILLE    MOSUNNY   79  63  57 SW3       30.09F HX  80
$$

ILZ033-039-045-046-055>057-062-063-011800-
EAST-CENTRAL ILLINOIS

CITY           SKY/WX    TMP DP  RH WIND       PRES   REMARKS
CHAMPAIGN      MOSUNNY   80  60  50 W3        30.10F HX  81
DANVILLE*      MOSUNNY   76  64  65 S5        30.09F
RANTOUL*       SUNNY     82  61  49 S6        30.11F HX  82
MATTOON        MOSUNNY   79  61  53 W3        30.10S HX  80
PARIS*         CLOUDY    76  67  74 NE5       30.12S
$$

ILZ079-100>102-011800-
SOUTHWEST ILLINOIS

CITY           SKY/WX    TMP DP  RH WIND       PRES   REMARKS
ALTON          PTSUNNY   81  68  65 CALM      30.10S HX  83
BELLEVILLE     SUNNY     82  66  58 VRB2      30.08F HX  84
CAHOKIA*       SUNNY     83  61  47 VRB3      30.08F HX  83
SPARTA*        MOSUNNY   79  64  61 CALM      30.10F HX  81
$$

ILZ064>066-069>071-074>076-080>082-084>086-088>090-092>094-011800-
SOUTH-CENTRAL ILLINOIS

CITY           SKY/WX    TMP DP  RH WIND       PRES   REMARKS
CARBONDALE     SUNNY     81  63  54 CALM      30.09F HX  82
CAIRO*         CLOUDY    82  65  54 CALM      30.09S HX  84
EFFINGHAM*     MOSUNNY   82  57  42 CALM      30.10F HX  82
MARION         MOSUNNY   81  61  50 S9        30.10F HX  81
MT. VERNON     PTSUNNY   82  64  54 SE3       30.11S HX  84
CENTRALIA*     SUNNY     89  58  35 CALM      30.10S HX  88
SALEM*         MOSUNNY   81  66  60 CALM      30.10F HX  83
METROPOLIS*    PTSUNNY   82  60  46 CALM      30.08S HX  82
$$

ILZ067-068-072-073-078-083-087-091-011800-
SOUTHEAST ILLINOIS

CITY           SKY/WX    TMP DP  RH WIND       PRES   REMARKS
LAWRENCEVILLE  SUNNY     81  62  52 CALM      30.11S HX  82
FLORA*         SUNNY     81  62  53 E5        30.10S HX  82
FAIRFIELD*     SUNNY     82  66  57 CALM      30.10S HX  85
HARRISBURG*    SUNNY     80  67  64 CALM      30.11S HX  82
ROBINSON*      MOSUNNY   83  62  49 CALM      30.11S HX  84
CARMI*         MOSUNNY   82  68  61 CALM      30.10S HX  85
$$

ABBREVIATIONS USED IN REMARKS
   TC - TEMPERATURE IN CELSIUS
  WCI - WIND CHILL INDEX
   HX - HEAT INDEX
  VSB - VISIBILITY
$$



USA.gov is the U.S. government's official web portal to all federal, state and local government web resources and services.